Harrison, AR

3:08 PM CDT on July 24, 2017 (GMT -0500)
Boone County

Weather History for KHRO - January, 2011

Change the Weather History Date:

Wednesday, January 5, 2011

  Actual Average Record
Temperature  
Mean Temperature 45 °F 36 °F  
Max Temperature 52 °F 46 °F 75 °F (1956)
Min Temperature 37 °F 26 °F -8 °F (1942)
Degree Days  
Heating Degree Days 20 29  
Month to date heating degree days 144 145  
Since 1 July heating degree days 1598 1744  
Cooling Degree Days 0 0  
Month to date cooling degree days 0 0  
Year to date cooling degree days 0 0  
Moisture  
Dew Point 21 °F    
Average Humidity 41    
Maximum Humidity 54    
Minimum Humidity 28    
Precipitation  
Precipitation 0.00 in 0.09 in 1.61 in (1929)
Month to date precipitation 0.00 0.42  
Year to date precipitation 0.00 0.42  
Snow  
Snow 0.00 in 0.10 in 2.00 in (1910)
Month to date snowfall 0.0 0.5  
Since 1 July snowfall T 2.3  
Snow Depth 0.00 in    
Sea Level Pressure  
Sea Level Pressure 29.93 in    
Wind  
Wind Speed 6 mph (WSW)    
Max Wind Speed 15 mph    
Max Gust Speed 22 mph    
Visibility 10 miles    
Events      
T = Trace of Precipitation, MM = Missing Value Source: NWS Daily Summary

Daily Weather History Graph

Daily Weather History Graph

Search for Another Location

Airport or City:

Trip Planner

Search our weather history database for the weather conditions in past years. The results will help you decide how hot, cold, wet, or windy it might be!

Date:

Astronomy

Jan. 05, 2011 Rise Set
Actual Time 7:24 AM CST 5:11 PM CST
Civil Twilight 6:55 AM CST 5:40 PM CST
Nautical Twilight 6:23 AM CST 6:12 PM CST
Astronomical Twilight 5:52 AM CST 6:43 PM CST
Moon 8:11 AM CST (1/5) 6:45 PM CST (1/5)
Length of Visible Light 10h 44m
Length of Day
9h 47m
New Moon, 2% of the Moon is Illuminated
Jan 5
New Moon
Jan 12
First Quarter
Jan 19
Full
Jan 26
Last Quarter
Feb 2
New

Hourly Weather History & Observations

Time (CST) Temp. Windchill Dew Point Humidity Pressure Visibility Wind Dir Wind Speed Gust Speed Precip Events Conditions
12:53 AM 39.0 °F 34.0 °F 21.0 °F 49% 30.01 in 10.0 mi SE 6.9 mph - N/A   Overcast
1:53 AM 39.0 °F 36.8 °F 19.9 °F 46% 30.02 in 10.0 mi East 3.5 mph - N/A   Overcast
2:53 AM 39.0 °F 34.0 °F 19.9 °F 46% 29.99 in 10.0 mi SE 6.9 mph - N/A   Overcast
3:53 AM 37.0 °F 31.0 °F 21.0 °F 52% 29.95 in 10.0 mi SE 8.1 mph - N/A   Overcast
4:53 AM 37.0 °F 31.6 °F 21.0 °F 52% 29.93 in 10.0 mi SE 6.9 mph - N/A   Overcast
5:05 AM 37.4 °F 32.1 °F 21.2 °F 52% 29.92 in 10.0 mi SE 6.9 mph - N/A   Overcast
5:53 AM 39.0 °F 36.8 °F 21.9 °F 50% 29.94 in 10.0 mi NE 3.5 mph - N/A   Overcast
6:53 AM 37.9 °F 34.4 °F 21.9 °F 53% 29.94 in 10.0 mi ESE 4.6 mph - N/A   Overcast
7:53 AM 37.0 °F 33.3 °F 21.9 °F 54% 29.94 in 10.0 mi SE 4.6 mph - N/A   Overcast
8:27 AM 37.4 °F 32.8 °F 23.0 °F 56% 29.93 in 10.0 mi SSE 5.8 mph - N/A   Overcast
8:53 AM 37.9 °F 31.5 °F 23.0 °F 55% 29.94 in 10.0 mi SE 9.2 mph - N/A   Overcast
9:53 AM 39.0 °F - 23.0 °F 53% 29.96 in 10.0 mi Calm Calm - N/A   Overcast
10:53 AM 41.0 °F 39.0 °F 25.0 °F 53% 29.94 in 10.0 mi SE 3.5 mph - N/A   Overcast
11:53 AM 48.0 °F - 27.0 °F 44% 29.91 in 10.0 mi WNW 8.1 mph 17.3 mph N/A   Mostly Cloudy
12:53 PM 50.0 °F - 26.1 °F 39% 29.88 in 10.0 mi WNW 9.2 mph 17.3 mph N/A   Clear
1:53 PM 51.1 °F - 27.0 °F 39% 29.86 in 10.0 mi WNW 11.5 mph 16.1 mph N/A   Clear
2:53 PM 52.0 °F - 23.0 °F 32% 29.86 in 10.0 mi WNW 10.4 mph 19.6 mph N/A   Clear
3:53 PM 51.1 °F - 19.0 °F 28% 29.87 in 10.0 mi West 11.5 mph - N/A   Clear
4:53 PM 48.0 °F - 17.1 °F 29% 29.89 in 10.0 mi West 6.9 mph - N/A   Clear
5:53 PM 45.0 °F 41.2 °F 17.1 °F 33% 29.91 in 10.0 mi WNW 6.9 mph - N/A   Clear
6:53 PM 42.1 °F 39.2 °F 18.0 °F 38% 29.92 in 10.0 mi WNW 4.6 mph - N/A   Clear
7:53 PM 41.0 °F 38.0 °F 19.0 °F 41% 29.93 in 9.0 mi WNW 4.6 mph - N/A   Clear
8:53 PM 39.9 °F 35.8 °F 19.0 °F 43% 29.92 in 10.0 mi West 5.8 mph - N/A   Clear
9:53 PM 41.0 °F 35.8 °F 19.9 °F 43% 29.94 in 10.0 mi West 8.1 mph - N/A   Clear
10:53 PM 39.0 °F 36.8 °F 18.0 °F 43% 29.94 in 10.0 mi West 3.5 mph - N/A   Clear
11:53 PM 37.0 °F 32.4 °F 17.1 °F 44% 29.94 in 10.0 mi WNW 5.8 mph - N/A   Clear